Regional Weather Roundup
Issued by NWS

Home | Current Version | Previous Version | Text Only | Print | Product List | Glossary On
Versions: 1 2 3 4 5 6 7 8 9 10 11 12 13 14 15 16 17 18 19 20 21 22 23 24 25 26 27 28 29 30 31 32 33 34 35 36 37 38 39 40 41 42 43 44 45 46 47 48 49 50
000
ASUS44 KMEG 291910
RWRTN
TENNESSEE HOURLY STATE WEATHER ROUNDUP
NATIONAL WEATHER SERVICE MEMPHIS TN
200 PM CDT SAT AUG 29 2015

TNZ002-004-019-021-049-052-054-088>092-292000-
WEST TENNESSEE

CITY           SKY/WX    TMP DP  RH WIND       PRES   REMARKS
MEMPHIS INTL   MOSUNNY   92  61  35 VRB5      30.05F HX  92
NWS MEMPHIS      N/A     91 N/A N/A MISG        N/A
JACKSON        MOSUNNY   90  64  42 SW7       30.06F HX  91
DYERSBURG      PTSUNNY  N/A N/A N/A MISG        N/A
UNION CITY     SUNNY     88  70  55 SW6       30.04F HX  92
PARIS          MOSUNNY   90  63  40 S8        30.06F HX  90
LEXINGTON      SUNNY     88  70  55 S6        30.07F HX  92
$$

TNZ008-025-027-028-033-062-065-066-292000-
NORTH MIDDLE TENNESSEE

CITY           SKY/WX    TMP DP  RH WIND       PRES   REMARKS
NASHVILLE      PTSUNNY   87  68  52 SE12      30.09F HX  90
CLARKSVILLE    LGT RAIN  89  63  41 SW8       30.07F HX  90
SMYRNA         PTSUNNY   89  72  57 S7        30.10F HX  96
COOKEVILLE     MOSUNNY   86  72  62 S8        30.12F HX  92
CROSSVILLE     MOSUNNY   81  65  58 S7        30.19F
$$

TNZ061-075-076-078-094-096-097-292000-
SOUTH MIDDLE TENNESSEE

CITY           SKY/WX    TMP DP  RH WIND       PRES   REMARKS
FAYETTEVILLE     N/A     75  66  73 CALM      30.13S
TULLAHOMA      MOSUNNY   82  66  57 SE9       30.14F
WINCHESTER     MOSUNNY   84  70  61 SE8       30.12F
MCMINNVILLE    MOSUNNY   79  72  78 NE3       30.14F
COLUMBIA       PTSUNNY   82  75  78 S14       30.10S
SHELBYVILLE    PTSUNNY   79  70  73 SW16      30.14R
$$

TNZ017-018-042-046-047-292000-
NORTHEAST TENNESSEE

CITY           SKY/WX    TMP DP  RH WIND       PRES   REMARKS
TRI CITIES     CLOUDY    81  59  47 CALM      30.20F
ELIZABETHTON   CLEAR     81  57  44 CALM      30.20F
$$

TNZ012-013-036-069-073-074-292000-
CENTRAL EAST TENNESSEE

CITY           SKY/WX    TMP DP  RH WIND       PRES   REMARKS
KNOXVILLE      PTSUNNY   89  71  55 VRB3      30.15F HX  95
OAK RIDGE      PTSUNNY   85  63  47 VRB3      30.16F
GATLINBURG       N/A     84  57  39 VRB6      30.15F
MORRISTOWN     CLEAR     81  64  57 N5        30.19F
$$

TNZ083-085-099-292000-
SOUTHEAST TENNESSEE

CITY           SKY/WX    TMP DP  RH WIND       PRES   REMARKS
CHATTANOOGA    PTSUNNY   84  67  56 S8        30.13F
$$

SKY/WX REPORTED AS FAIR MEANS FEW OR NO CLOUDS BELOW
12 THOUSAND FEET.



USA.gov is the U.S. government's official web portal to all federal, state and local government web resources and services.